ATLAS 5 CENTAUR DEB, 46657

Orbit data source: Space-Track

ATLAS 5 CENTAUR DEB, 46657 is space debris in HEO originally from a launch on Wed, 17 Oct 2018 UTC launched from the Air Force Eastern Test Range (AFETR). Debris objects in space refer to the collection of defunct objects orbiting the Earth. Examples of debris include non-operational satellites, rocket bodies, and fragments generated from explosions, collisions, or faulty payload assembly.

Loading next visibility...
Identifier
46657, 2018-079CK
Orbit
HEO
Country
Flag of USUS
Related business
Flag of USUnited Launch Alliance/Lockheed Martin (US)
Manufacturer
ULA Decatur
Mission
Spacecraft
Bus & Motor
Unknown
Mass
Unknown
Launch date (UTC)
2018-10-17 (8 years ago)
Launch vehicle
Unknown
Launch site
Air Force Eastern Test Range (AFETR)
Object type
Payload
Rocket body
Debris
Shape & HBR
Unknown shape, 1.1 m
Radar Cross Section
Large (>1 m²)

Expand to show TLE details & history
Last TLE update: 2 weeks ago

TLE from 2 weeks ago
0 ATLAS 5 CENTAUR DEB
1 46657U 18079CK  26219.97782875 -.00000110  00000-0  00000-0 0  9999
2 46657  12.9445  15.6362 5159900 355.5784   1.0910  1.70069394 36216
Epoch: 2026-08-07T23:28Z
TLE epoch observation values (Epoch: 2026-08-07T23:28:04.403Z)
Latitude
0.00006°
Longitude
67.14476°
Altitude
8,005.819 km
Speed
6.479 km/s
True Right ascension
01h 02m 38s
True Declination
0° 00' 00"
Sunlit
Object was in daylight at epoch
Visualization orbit readout
Latitude
Unknown
Longitude
Unknown
Altitude
Unknown
Speed
Unknown
Apparent Right ascension
Unknown
Apparent Declination
Unknown
Sunlit
N/A
Visualization observer readout
Local Sidereal Time
17:51:06
Azimuth
Unknown
Elevation
Unknown
Doppler factor
Unknown
Orbital elements
Apogee altitude
38,570.137 km
Perigee altitude
7,972.495 km
Semi-major axis
29,649.453 km
Eccentricity
0.51599
Inclination
12.9445°
RAAN
15.6362°
Arg. of periapsis
355.5784°
True anomaly
3.98706°
Mean anomaly
1.091°
Eccentric anomaly
2.25347°
Mean motion
0.42513 °/min
Orbital period
846.81 mins
BSTAR
0
Loading maneuver chart data...
Computing Atmospheric mass density...

Documentation

Showing up to 5 results
|